Regional Weather Roundup
Issued by NWS

Home | Current Version | Previous Version | Text Only | Print | Product List | Glossary Off
Versions: 1 2 3 4 5 6 7 8 9 10 11 12 13 14 15 16 17 18 19 20 21 22 23 24 25 26 27 28 29 30 31 32 33 34 35 36 37 38 39 40 41 42 43 44 45 46 47 48 49 50

485
ASUS43 KTOP 302159
RWRKS

WEATHER ROUNDUP FOR KANSAS
NATIONAL WEATHER SERVICE GOODLAND KS
500 PM CDT TUE AUG 30 2016

NOTE:  "FAIR" INDICATES FEW OR NO CLOUDS BELOW 12,000 FEET WITH NO
SIGNIFICANT WEATHER AND/OR OBSTRUCTIONS TO VISIBILITY.

KSZ001>006-013>018-027>032-041>047-302300-
NORTHWEST KANSAS

CITY           SKY/WX    TMP DP  RH WIND       PRES   REMARKS
GOODLAND       CLOUDY    75  63  66 E9        30.20F
HAYS           CLOUDY    81  64  57 NE5       30.14S
HILL CITY      CLOUDY    78  65  63 SE5       30.17S
RUSSELL        CLOUDY    78  71  79 NE13      30.13S
$$

KSZ061>065-074>080-084>089-302300-
SOUTHWEST KANSAS

CITY           SKY/WX    TMP DP  RH WIND       PRES   REMARKS
DODGE CITY     TSTM      69  67  93 N5        30.19R
ELKHART          N/A     74  62  66 SE7         N/A
GARDEN CITY    CLOUDY    76  63  64 SW3       30.18F
GREAT BEND     PTSUNNY   75  66  73 S6        30.13R
LIBERAL        CLOUDY    73  64  73 E12       30.22S
$$

KSZ066>073-081>083-090>101-302300-
SOUTHEAST KANSAS

CITY           SKY/WX    TMP DP  RH WIND       PRES   REMARKS
CHANUTE        MOSUNNY   91  71  51 NE8       30.04F HX  97
COFFEYVILLE    MOSUNNY   91  71  51 NE6       30.02F HX  97
HUTCHINSON     PTSUNNY   86  72  62 N12       30.08F
MEDICINE LODGE   N/A     80  69  69 N13       30.08F
NEWTON         TSTM      74  67  78 SW14      30.11R
PARSONS        CLOUDY    91  70  49 MISG      30.04F HX  96
WICHITA INTL   PTSUNNY   87  68  52 N8        30.05F
WICHITA JABRA  MOSUNNY   87  71  58 NW6       30.04F
WINFIELD       SUNNY     89  67  47 VRB5      30.05F
$$

KSZ007>012-019>026-033>040-048>060-102>105-302300-
NORTHEAST KANSAS

CITY           SKY/WX    TMP DP  RH WIND       PRES   REMARKS
CONCORDIA      LGT RAIN  72  68  87 N8        30.14R
EMPORIA        TSTM      75  72  90 W9        30.10R FOG
LAWRENCE       MOSUNNY   78  77  96 CALM      30.08S
MANHATTAN      PTSUNNY   80  73  79 NE3       30.10F
OLATHE IND     MOSUNNY   86  72  62 N9        30.09F
OLATHE EXE     CLOUDY    85  69  58 N5        30.08F
SALINA         TSTM      73  70  90 CALM      30.13S FOG
TOPEKA BILLARD MOSUNNY   84  72  67 NE6       30.08F
TOPEKA FORBES  CLOUDY    84  74  71 N5        30.09F
$$




USA.gov is the U.S. government's official web portal to all federal, state and local government web resources and services.